Jackson, WY

1:46 PM MDT on April 29, 2017 (GMT -0600)
Jackson Hole

Weather History for KJAC - November, 2012

Change the Weather History Date:

Friday, November 16, 2012

  Actual Average Record
Temperature  
Mean Temperature 26 °F -  
Max Temperature 39 °F 35 °F 53 °F (1999)
Min Temperature 12 °F 12 °F -14 °F (2014)
Degree Days  
Heating Degree Days 40    
Moisture  
Dew Point 22 °F    
Average Humidity 90    
Maximum Humidity 100    
Minimum Humidity 65    
Precipitation  
Precipitation 0.00 in - - ()
Sea Level Pressure  
Sea Level Pressure 30.15 in    
Wind  
Wind Speed 5 mph (North)    
Max Wind Speed 9 mph    
Max Gust Speed -    
Visibility 10 miles    
Events Snow    
Averages and records for this station are not official NWS values.
T = Trace of Precipitation, MM = Missing Value Source: NWS Daily Summary

Daily Weather History Graph

Daily Weather History Graph

Search for Another Location

Airport or City:

Trip Planner

Search our weather history database for the weather conditions in past years. The results will help you decide how hot, cold, wet, or windy it might be!

Date:

Astronomy

Nov. 16, 2012 Rise Set
Actual Time 7:18 AM MST 4:56 PM MST
Civil Twilight 6:47 AM MST 5:27 PM MST
Nautical Twilight 6:13 AM MST 6:02 PM MST
Astronomical Twilight 5:39 AM MST 6:36 PM MST
Moon 10:18 AM MST (11/16) 7:58 PM MST (11/16)
Length of Visible Light 10h 39m
Length of Day
9h 37m
Waxing Crescent, 12% of the Moon is Illuminated
Nov 16
Waxing Crescent
Nov 20
First Quarter
Nov 28
Full
Dec 6
Last Quarter
Dec 13
New

Hourly Weather History & Observations

Time (MST) Temp. Windchill Dew Point Humidity Pressure Visibility Wind Dir Wind Speed Gust Speed Precip Events Conditions
12:15 AM 15.8 °F 5.1 °F 15.8 °F 100% 30.23 in 10.0 mi North 8.1 mph - N/A   Clear
12:35 AM 15.8 °F 5.1 °F 14.0 °F 93% 30.23 in 10.0 mi North 8.1 mph - N/A   Clear
12:55 AM 15.8 °F 6.1 °F 15.8 °F 100% 30.23 in 10.0 mi North 6.9 mph - N/A   Clear
1:35 AM 15.8 °F 5.1 °F 14.0 °F 93% 30.22 in 10.0 mi North 8.1 mph - N/A   Clear
1:55 AM 14.0 °F 2.9 °F 12.2 °F 93% 30.22 in 10.0 mi North 8.1 mph - N/A   Clear
2:15 AM 12.2 °F 1.7 °F 12.2 °F 100% 30.23 in 10.0 mi North 6.9 mph - N/A   Clear
2:35 AM 14.0 °F 6.5 °F 12.2 °F 93% 30.22 in 10.0 mi North 4.6 mph - N/A   Clear
2:55 AM 14.0 °F 8.2 °F 12.2 °F 93% 30.22 in 10.0 mi NNE 3.5 mph - N/A   Clear
3:15 AM 14.0 °F 3.9 °F 12.2 °F 93% 30.21 in 10.0 mi North 6.9 mph - N/A   Clear
3:35 AM 14.0 °F 2.0 °F 12.2 °F 93% 30.21 in 10.0 mi North 9.2 mph - N/A   Clear
3:55 AM 12.2 °F 2.9 °F 12.2 °F 100% 30.20 in 10.0 mi North 5.8 mph - N/A   Clear
4:15 AM 12.2 °F 6.1 °F 12.2 °F 100% 30.20 in 10.0 mi NNE 3.5 mph - N/A   Clear
4:35 AM 12.2 °F 1.7 °F 12.2 °F 100% 30.19 in 10.0 mi North 6.9 mph - N/A   Clear
4:55 AM 14.0 °F 5.1 °F 14.0 °F 100% 30.19 in 10.0 mi North 5.8 mph - N/A   Clear
5:15 AM 15.8 °F 8.6 °F 14.0 °F 93% 30.19 in 10.0 mi NNE 4.6 mph - N/A   Partly Cloudy
5:35 AM 15.8 °F 10.2 °F 14.0 °F 93% 30.19 in 10.0 mi NNE 3.5 mph - N/A   Partly Cloudy
5:55 AM 15.8 °F 8.6 °F 14.0 °F 93% 30.18 in 10.0 mi North 4.6 mph - N/A   Partly Cloudy
6:15 AM 15.8 °F 7.2 °F 14.0 °F 93% 30.17 in 10.0 mi North 5.8 mph - N/A   Partly Cloudy
6:35 AM 15.8 °F 7.2 °F 14.0 °F 93% 30.17 in 10.0 mi NNE 5.8 mph - N/A   Clear
6:52 AM 15.8 °F 8.6 °F 15.8 °F 100% 30.17 in 10.0 mi Variable 4.6 mph - N/A   Scattered Clouds
7:51 AM 17.6 °F 12.3 °F 17.6 °F 100% 30.17 in 10.0 mi NE 3.5 mph - N/A   Mostly Cloudy
8:45 AM 19.4 °F - 19.4 °F 100% 30.17 in 10.0 mi Calm Calm - N/A   Mostly Cloudy
9:53 AM 24.8 °F - 21.2 °F 86% 30.15 in 10.0 mi Calm Calm - N/A   Clear
11:51 AM 32.0 °F - 24.8 °F 75% 30.12 in 10.0 mi Calm Calm - N/A   Mostly Cloudy
11:59 AM 30.2 °F - 24.8 °F 80% 30.14 in 10.0 mi Calm Calm - N/A   Mostly Cloudy
12:51 PM 33.8 °F 28.6 °F 24.8 °F 70% 30.10 in 10.0 mi SSE 5.8 mph - N/A   Mostly Cloudy
1:52 PM 35.6 °F - 26.6 °F 70% 30.08 in 10.0 mi Calm Calm - N/A   Overcast
2:51 PM 39.2 °F 34.2 °F 28.4 °F 65% 30.08 in 10.0 mi SSW 6.9 mph - N/A   Overcast
3:51 PM 39.2 °F 33.0 °F 30.2 °F 70% 30.09 in 8.0 mi SW 9.2 mph - N/A   Overcast
4:52 PM 37.4 °F 30.8 °F 32.0 °F 81% 30.09 in 8.0 mi SSW 9.2 mph - N/A   Overcast
5:51 PM 35.6 °F 29.2 °F 32.0 °F 87% 30.09 in 8.0 mi SSW 8.1 mph - N/A   Overcast
6:55 PM 35.6 °F 29.9 °F 32.0 °F 87% 30.09 in 8.0 mi SSW 6.9 mph - N/A Snow Snow
7:58 PM 35.6 °F - 32.0 °F 87% 30.09 in 8.0 mi Calm Calm - N/A   Overcast
8:52 PM 35.6 °F - 32.0 °F 87% 30.09 in 10.0 mi Calm Calm - N/A   Overcast
8:55 PM 35.6 °F - 32.0 °F 87% 30.09 in 10.0 mi Calm Calm - N/A   Overcast
9:15 PM 33.8 °F - 32.0 °F 93% 30.10 in 10.0 mi Calm Calm - N/A   Overcast
9:35 PM 35.6 °F - 32.0 °F 87% 30.10 in 10.0 mi Calm Calm - N/A   Overcast
9:55 PM 35.6 °F - 32.0 °F 87% 30.10 in 10.0 mi Calm Calm - N/A   Overcast
10:15 PM 33.8 °F - 32.0 °F 93% 30.11 in 10.0 mi Calm Calm - N/A   Overcast
10:55 PM 33.8 °F - 30.2 °F 87% 30.11 in 10.0 mi Calm Calm - N/A   Overcast
11:15 PM 35.6 °F 30.7 °F 30.2 °F 81% 30.11 in 10.0 mi South 5.8 mph - N/A   Overcast
11:35 PM 33.8 °F 30.8 °F 30.2 °F 87% 30.11 in 10.0 mi SSW 3.5 mph - N/A   Overcast
11:55 PM 33.8 °F 30.8 °F 30.2 °F 87% 30.12 in 10.0 mi NNW 3.5 mph - N/A   Overcast